AirNav   ProFlight Series 2 Aviation Headset
 
 413 users online  

TA31 Tularosa Airport
Brackettville, Texas, USA

GOING TO BRACKETTVILLE?


FAA INFORMATION EFFECTIVE 16 JULY 2020

Location

FAA Identifier: TA31
Lat/Long: 29-25-49.8360N 100-15-27.2670W
29-25.830600N 100-15.454450W
29.4305100,-100.2575742
(estimated)
Elevation: 1397 ft. / 426 m (estimated)
Variation: 08E (1985)
From city: 10 miles E of BRACKETTVILLE, TX
Time zone: UTC -5 (UTC -6 during Standard Time)
Zip code: 78832

Airport Operations

Airport use: Private use. Permission required prior to landing
Activation date: 06/1989
Control tower: no
ARTCC: HOUSTON CENTER
FSS: SAN ANGELO FLIGHT SERVICE STATION
Attendance: IREG
Wind indicator: yes
Segmented circle: no

Nearby radio navigation aids

VOR radial/distance  VOR name  Freq  Var
DLFr074/27.2LAUGHLIN VORTAC114.4007E
RSGr166/35.1ROCKSPRINGS VORTAC114.5510E

 
NDB name  Hdg/Dist  Freq  Var  ID
SPOFFORD019/19.335608EPFO .--. ..-. ---
LA FONDA RANCH046/23.326909EBRX -... .-. -..-
UVALDE292/31.728107EUVA ..- ...- .-
CHAPARROSA RANCH332/35.938505ECPZ -.-. .--. --..
LA PRYOR316/36.722309ELKX .-.. -.- -..-

Airport Services

Runway Information

Runway 1/19

Dimensions: 3800 x 60 ft. / 1158 x 18 m
Surface: turf
RUNWAY 1  RUNWAY 19
Traffic pattern: leftleft
Obstructions: 5 ft. fence, 5 ft. from runway5 ft. fence, 20 ft. from runway

Airport Ownership and Management from official FAA records

Ownership: Privately-owned
Owner: LLOYD L. DAVIS, JR.
BOX 527
BRACKETTVILLE, TX 78832
Phone 830-563-2742
OR 830-563-9508.
Manager: LLOYD L. DAVIS, JR.
BOX 527
BRACKETTVILLE, TX 78832
Phone 830-563-9508

Airport Operational Statistics

Aircraft based on the field: 7
Single engine airplanes: 2
Multi engine airplanes: 2
Helicopters: 3
    

Additional Remarks

FOR CD CTC LAUGHLIN APCH AT 830-298-4350, WHEN APCH CLSD CTC HOUSTON ARTCC AT 281-230-5622.

Instrument Procedures

There are no published instrument procedures at TA31.

Some nearby airports with instrument procedures:

KDLF - Laughlin AFB Airport (28 nm W)
KUVA - Garner Field Airport (30 nm SE)
KECU - Edwards County Airport (31 nm N)
KDRT - Del Rio International Airport (35 nm W)
5T9 - Maverick County Memorial International Airport (37 nm S)
 
Loc | Ops | Rwys | IFR | FBO | Links
Com | Nav | Svcs | Stats | Notes
Area around TA31 (Tularosa Airport)
 
Road maps at: MapQuest Bing Google
 
Aerial photo
No photo
 
Sectional chart

 
Airport distance calculator
Flying to Tularosa Airport? Find the distance to fly.

From to TA31

Sunrise and sunset
Times for 12-Aug-2020
 Local
(UTC-5)
 Zulu
(UTC)
Morning civil twilight06:4411:44
Sunrise07:0912:09
Sunset20:2301:23
Evening civil twilight20:4801:48

Current date and time
Zulu (UTC)  12-Aug-2020 07:22:45
Local (UTC-5)  12-Aug-2020 02:22:45
 
METAR
KDLF 
27nm W 
120656Z AUTO 16013G22KT 10SM CLR 31/20 A2991 RMK AO2 SLP113 T03070203 CHINO RWY31 $
KUVA 
30nm SE 
120655Z AUTO 15008KT 10SM CLR 28/22 A2997 RMK AO2 T02830221
KECU 
31nm N 
120655Z AUTO 15014KT 10SM CLR 27/20 A3006 RMK AO2
KDRT 
35nm W 
120653Z AUTO 15015G22KT 10SM CLR 32/20 A2989 RMK AO2 SLP103 T03220200
K5T9 
37nm S 
120655Z AUTO 16012G18KT 10SM CLR 30/19 A2993 RMK A01
TAF
KDLF 
27nm W 
120450Z 1204/1302 14010KT 9999 SKC QNH2992INS BECMG 1211/1212 15012KT 9999 SCT017 QNH2997INS BECMG 1213/1214 15010G15KT 9999 FEW040 QNH2997INS BECMG 1217/1218 15010G18KT 9999 SKC QNH2994INS TX39/1221Z TN25/1212Z LAST NO AMDS AFT 1204 NEXT 1212
NOTAMs
Click for the latest NOTAMs
NOTAMs are issued by the DoD/FAA and will open in a separate window not controlled by AirNav.

 

 
 

Would you like to see your business listed on this page?

 If your business provides an interesting product or service to pilots, flight crews, aircraft, or users of the Tularosa Airport, you should consider listing it here.  To start the listing process, click on the button below
 
Add a business
 

Other Pages about Tularosa Airport

Update a link
 
Copyright © AirNav, LLC. All rights reserved. Privacy Policy  Contact